map of KEKS home
KEKS - Airport
Location
City:  Ennis, Montana, United States
Name:Ennis - Big Sky Airport
ICAO:KEKS
FAA LID:EKS

Details
Type:Airport (Airfield)
Use:Public/Civil
Latitude:4516'28"N (45.274361)
Longitude:11138'56"W (-111.648860)
Datum:WGS 1984
Elevation:5422 ft (1653 m)
Variation:12.15E (WMM2015 magnetic declination)
-0.12 annual change
Runways:1
Longest:6601 × 75 ft (2012 × 23 m), paved

Time
Time Zone:UTC-7 (DST-6)
Local Time:

Weather
METAR:KEKS 231615Z AUTO 00000KT 10SM CLR M09/M13 A2965 RMK A01
TAF:KEKS 231121Z 2312/2412 18009KT P6SM FEW020 OVC040
FM232000 36017G25KT 3SM -SN BR SCT005 OVC020
TEMPO 2322/2402 1 1/2SM -SN BR OVC010
AMD LTD TO CLD AND WIND

Related Locations
Nearby:
Farthest:RRG: 10649 mi / 17137 km
Plaine Corail, Rodrigues Island, MU

Find:

   beyond  
but within

Other Information
Maps:
NOTAMs:
Links:
Sources:

  
flag of United States
flag of Montana
  

Sectional Chart

Flight Planning
at skyvector.com

Satellite Image

Google Maps Satellite view

 

Copyright © 2004-2017 Karl L. Swartz. All rights reserved.
The Great Circle Mapper name and logo are trademarks of the Great Circle Mapper.
All other trademarks mentioned herein belong to their respective owners.
Please see credits for attibutions and further copyright information.

  Follow gcmap on Facebook Follow gcmap on Twitter Follow gcmap on Google+ GCmap on LinkedIn

hCard Microformat

Geo Microformat